Sigfox identifier Datetime Temperature Humidity SNR
003A76EB 2019-02-20 13:58:27 20.9 21 25.9
003A76EB 2019-02-20 13:28:58 20.9 22 25.9
003A76EB 2019-02-20 12:59:31 20.9 24 25.5
003A76EB 2019-02-20 12:30:03 20.9 24 25
003A76EB 2019-02-20 11:31:04 20.8 26 24.4
003A76EB 2019-02-20 11:01:35 20.8 26 23.7
003A76EB 2019-02-20 10:32:11 20.8 27 23.7
003A76EB 2019-02-20 10:02:40 20.7 27 23
003A76EB 2019-02-20 09:33:13 20.7 27 23
003A76EB 2019-02-20 09:03:45 20.7 27 22
003A76EB 2019-02-20 08:34:18 20.7 27 20.8
003A76EB 2019-02-20 08:04:50 20.6 27 20.7
003A76EB 2019-02-20 07:35:26 20.6 27 20.8
003A76EB 2019-02-20 07:05:53 20.6 27 20.7
003A76EB 2019-02-20 06:36:24 20.7 27 20.7
003A76EB 2019-02-20 06:06:55 20.7 27 20.6
003A76EB 2019-02-20 05:37:26 20.7 27 20.7
003A76EB 2019-02-20 05:07:57 20.7 27 20.6
003A76EB 2019-02-20 04:38:30 20.7 27 20.7
003A76EB 2019-02-20 04:09:02 20.7 27 20.8
003A76EB 2019-02-20 03:39:35 20.7 27 20.7
003A76EB 2019-02-20 03:10:08 20.7 27 20.8
003A76EB 2019-02-20 02:40:41 20.7 27 20.8
003A76EB 2019-02-20 02:11:14 20.7 27 19.2
003A76EB 2019-02-20 01:41:46 20.7 27 19.1
003A76EB 2019-02-20 01:12:18 20.7 27 19.1
003A76EB 2019-02-20 00:42:51 20.7 27 19.1
003A76EB 2019-02-20 00:13:24 20.7 27 18.9
003A76EB 2019-02-19 23:43:54 20.8 27 19
003A76EB 2019-02-19 23:14:25 20.8 27 19
003A76EB 2019-02-19 22:44:56 20.8 27 19.1
003A76EB 2019-02-19 22:15:27 20.8 27 20.7
003A76EB 2019-02-19 21:45:58 20.8 27 20.7
003A76EB 2019-02-19 21:16:29 20.8 27 20.7
003A76EB 2019-02-19 20:46:19 20.9 27 20.8
003A76EB 2019-02-19 20:16:49 20.8 27 20.9
003A76EB 2019-02-19 19:47:20 20.9 27 21
003A76EB 2019-02-19 19:17:53 20.9 27 21
003A76EB 2019-02-19 18:48:25 20.9 27 21
003A76EB 2019-02-19 18:18:57 21 27 21.2
003A76EB 2019-02-19 17:49:29 21.1 27 21.3
003A76EB 2019-02-19 17:20:01 21.1 27 21.2
003A76EB 2019-02-19 16:50:31 21.1 28 21.4
003A76EB 2019-02-19 16:21:03 21.1 28 22.4
003A76EB 2019-02-19 15:22:07 21.1 27 22.4
003A76EB 2019-02-19 14:52:40 21.1 27 22.4
003A76EB 2019-02-19 14:23:15 21.1 27 22.4
003A76EB 2019-02-19 13:53:47 21 28 21.2
003A76EB 2019-02-19 13:24:20 21 27 21.2
003A76EB 2019-02-19 12:54:51 21 27 21.2
003A76EB 2019-02-19 12:25:23 21 27 21.2
003A76EB 2019-02-19 11:55:55 21 27 21.3
003A76EB 2019-02-19 11:26:27 21 27 21.3
003A76EB 2019-02-19 10:57:01 20.9 27 21.2
003A76EB 2019-02-19 10:27:31 20.9 27 21.3
003A76EB 2019-02-19 09:58:04 20.8 26 21.3
003A76EB 2019-02-19 09:28:37 20.8 26 19.9
003A76EB 2019-02-19 08:59:10 20.7 26 19.9
003A76EB 2019-02-19 08:29:43 20.7 25 20
003A76EB 2019-02-19 08:00:15 20.7 25 19.9
003A76EB 2019-02-19 07:30:47 20.7 25 19.9
003A76EB 2019-02-19 07:01:19 20.7 25 19.9
003A76EB 2019-02-19 06:31:51 20.7 25 19.9
003A76EB 2019-02-19 06:02:22 20.7 25 21.4
003A76EB 2019-02-19 05:32:53 20.7 25 21.3
003A76EB 2019-02-19 05:03:26 20.7 25 21.2
003A76EB 2019-02-19 04:33:57 20.7 24 21.1
003A76EB 2019-02-19 04:04:29 20.7 24 21
003A76EB 2019-02-19 03:35:01 20.7 24 21
003A76EB 2019-02-19 03:05:33 20.7 24 21
003A76EB 2019-02-19 02:36:04 20.7 24 21
003A76EB 2019-02-19 02:06:37 20.7 24 21
003A76EB 2019-02-19 01:37:09 20.7 24 21.1
003A76EB 2019-02-19 01:07:41 20.7 24 20.9
003A76EB 2019-02-19 00:38:15 20.7 23 20.9
003A76EB 2019-02-19 00:08:48 20.7 23 21
003A76EB 2019-02-18 23:39:19 20.7 23 21.2
003A76EB 2019-02-18 23:09:52 20.8 23 21.3
003A76EB 2019-02-18 22:40:29 20.8 23 21.5
003A76EB 2019-02-18 22:11:01 20.8 23 21.5
003A76EB 2019-02-18 21:41:34 20.9 22 21.5
003A76EB 2019-02-18 21:12:07 21.1 22 21.6
003A76EB 2019-02-18 20:42:39 21.4 22 21.6
003A76EB 2019-02-18 20:12:31 20.8 22 21.7
003A76EB 2019-02-18 19:43:05 20.8 22 21.7
003A76EB 2019-02-18 19:13:39 20.8 22 21.8
003A76EB 2019-02-18 18:44:12 20.9 22 21.8
003A76EB 2019-02-18 18:14:44 20.9 22 21.9
003A76EB 2019-02-18 17:45:19 20.9 21 20.7
003A76EB 2019-02-18 17:15:53 21 21 22
003A76EB 2019-02-18 16:46:27 21 21 22.1
003A76EB 2019-02-18 16:17:00 21 21 22.2
003A76EB 2019-02-18 15:47:35 21.1 21 22.3
003A76EB 2019-02-18 15:18:07 21.1 21 21.3
003A76EB 2019-02-18 14:48:40 21.1 21 21.2
003A76EB 2019-02-18 14:19:13 21.2 21 21.4
003A76EB 2019-02-18 13:49:45 21.2 20 21.6
003A76EB 2019-02-18 13:20:17 21.3 20 21.6
003A76EB 2019-02-18 12:50:50 21.4 20 21.6
003A76EB 2019-02-18 12:21:24 21.5 19 21.8
003A76EB 2019-02-18 11:51:54 21.4 19 21.9
003A76EB 2019-02-18 11:22:26 21.4 19 22.8
003A76EB 2019-02-18 10:52:58 21.3 19 22.7
003A76EB 2019-02-18 10:23:30 21.3 19 22.7
003A76EB 2019-02-18 09:54:03 21.2 19 22.7
003A76EB 2019-02-18 09:24:36 21.2 19 22.8
003A76EB 2019-02-18 08:55:10 21.2 19 22.8
003A76EB 2019-02-18 08:25:42 21.1 18 22.9
003A76EB 2019-02-18 07:56:17 21 18 22.9
003A76EB 2019-02-18 07:26:51 20.9 18 23.7
003A76EB 2019-02-18 06:57:24 20.9 18 23.7
003A76EB 2019-02-18 06:27:57 20.9 18 23.7
003A76EB 2019-02-18 05:58:30 20.9 18 23.7
003A76EB 2019-02-18 05:29:03 20.9 18 23.7
003A76EB 2019-02-18 04:59:36 20.9 18 23
003A76EB 2019-02-18 04:30:10 20.9 18 22.9
003A76EB 2019-02-18 04:00:42 20.8 18 23
003A76EB 2019-02-18 03:31:15 20.9 18 23
003A76EB 2019-02-18 03:01:48 20.9 18 23
003A76EB 2019-02-18 02:32:21 20.9 18 23
003A76EB 2019-02-18 02:02:54 20.9 18 23.1
003A76EB 2019-02-18 01:33:26 20.9 19 23
003A76EB 2019-02-18 01:03:59 21 19 23.1
003A76EB 2019-02-18 00:34:32 21 19 23.1
003A76EB 2019-02-18 00:05:05 21 19 23
003A76EB 2019-02-17 23:35:39 21 19 23
003A76EB 2019-02-17 23:06:11 21 19 22.2
003A76EB 2019-02-17 22:36:42 21 19 22.2
003A76EB 2019-02-17 22:07:14 21 19 23.1
003A76EB 2019-02-17 21:37:45 21 19 23.1
003A76EB 2019-02-17 21:08:16 20.9 19 23.1
003A76EB 2019-02-17 20:38:49 20.9 19 23
003A76EB 2019-02-17 20:09:22 21 19 23
003A76EB 2019-02-17 19:39:12 21 19 22.9
003A76EB 2019-02-17 19:09:44 21 19 22
003A76EB 2019-02-17 18:40:16 21 20 22
003A76EB 2019-02-17 18:10:47 21 19 22.1
003A76EB 2019-02-17 17:41:19 21 19 22.1
003A76EB 2019-02-17 17:11:50 21.1 19 22.2
003A76EB 2019-02-17 16:42:22 21.1 19 22.2
003A76EB 2019-02-17 16:12:54 21 19 22.2
003A76EB 2019-02-17 15:43:28 21.1 20 22.2
003A76EB 2019-02-17 15:13:59 21.1 20 22.1
003A76EB 2019-02-17 14:44:31 21.1 20 22.1
003A76EB 2019-02-17 14:15:05 21.1 20 22.1
003A76EB 2019-02-17 13:45:37 21.1 20 22.1
003A76EB 2019-02-17 13:16:10 21.2 20 22.1
003A76EB 2019-02-17 12:46:43 21.2 20 22.2
003A76EB 2019-02-17 12:17:17 21.1 20 22.2
003A76EB 2019-02-17 11:47:50 21.1 20 22.2
003A76EB 2019-02-17 11:18:23 21 20 22.3
003A76EB 2019-02-17 10:48:56 21 20 22.3
003A76EB 2019-02-17 10:19:29 21 20 22.3
003A76EB 2019-02-17 09:50:02 21 21 21.4
003A76EB 2019-02-17 09:20:34 21 21 21.4
003A76EB 2019-02-17 08:51:08 21 21 21.3
003A76EB 2019-02-17 08:21:42 21 21 21.5
003A76EB 2019-02-17 07:52:17 21.1 21 21.5
003A76EB 2019-02-17 07:22:52 21 21 21.4
003A76EB 2019-02-17 06:53:24 21 21 21.5
003A76EB 2019-02-17 06:23:56 21.1 21 21.5
003A76EB 2019-02-17 05:54:28 21.1 22 21.5
003A76EB 2019-02-17 05:25:02 21.1 22 21.5
003A76EB 2019-02-17 04:55:35 21.1 22 21.5
003A76EB 2019-02-17 04:26:09 21.1 22 21.6
003A76EB 2019-02-17 03:56:42 21.1 22 21.6
003A76EB 2019-02-17 03:27:14 21.1 23 21.6
003A76EB 2019-02-17 02:57:47 21.1 23 21.6
003A76EB 2019-02-17 02:28:21 21.1 23 21.7
003A76EB 2019-02-17 01:58:53 21.1 23 21.7
003A76EB 2019-02-17 01:29:26 21 24 21.6
003A76EB 2019-02-17 00:59:59 21.1 24 21.6
003A76EB 2019-02-17 00:30:31 21.1 24 21.5
003A76EB 2019-02-17 00:01:04 21.1 24 21.5
003A76EB 2019-02-16 23:31:37 21.1 24 21.5
003A76EB 2019-02-16 23:02:10 21.1 24 21.5
003A76EB 2019-02-16 22:32:42 21.2 24 21.4
003A76EB 2019-02-16 22:03:15 21.2 24 21.3
003A76EB 2019-02-16 21:33:48 21.2 24 21.4
003A76EB 2019-02-16 21:04:21 21.2 24 21.4
003A76EB 2019-02-16 20:34:54 21.3 24 22.4
003A76EB 2019-02-16 20:05:26 21.4 24 22.3
003A76EB 2019-02-16 19:35:58 21.7 24 22.3
003A76EB 2019-02-16 19:05:49 21.1 25 22.3
003A76EB 2019-02-16 18:36:22 21 25 22.3
003A76EB 2019-02-16 18:06:55 21.1 25 22.3
003A76EB 2019-02-16 17:37:26 21.2 25 22.4
003A76EB 2019-02-16 17:07:59 21.3 25 22.4
003A76EB 2019-02-16 16:38:30 21.3 25 22.4
003A76EB 2019-02-16 16:09:01 21.3 25 22.4
003A76EB 2019-02-16 15:39:32 21.3 25 22.5
003A76EB 2019-02-16 15:10:04 21.3 25 22.5
003A76EB 2019-02-16 14:40:36 21.3 25 22.5
003A76EB 2019-02-16 14:11:07 21.3 25 22.4
003A76EB 2019-02-16 13:41:39 21.3 25 22.4
003A76EB 2019-02-16 13:12:10 21.3 25 22.4
003A76EB 2019-02-16 12:42:43 21.3 25 22.5
003A76EB 2019-02-16 12:13:14 21.2 25 22.5
003A76EB 2019-02-16 11:43:46 21.2 25 22.5
003A76EB 2019-02-16 11:14:17 21.1 25 22.5
003A76EB 2019-02-16 10:44:49 21.1 25 22.4
003A76EB 2019-02-16 10:15:20 21.1 25 22.4
003A76EB 2019-02-16 09:45:49 21.1 25 22.4
003A76EB 2019-02-16 09:16:21 21.1 25 22.4
003A76EB 2019-02-16 08:46:51 21.1 25 22.3
003A76EB 2019-02-16 08:17:22 21.1 25 21.4
003A76EB 2019-02-16 07:47:53 21.1 25 21.5
003A76EB 2019-02-16 07:18:24 21.1 25 21.6
003A76EB 2019-02-16 06:48:54 21.1 25 21.8
003A76EB 2019-02-16 06:19:25 21.1 25 21.6
003A76EB 2019-02-16 05:49:54 21.1 25 21.7
003A76EB 2019-02-16 05:20:25 21.1 25 21.5
003A76EB 2019-02-16 04:50:54 21.1 25 21.6
003A76EB 2019-02-16 04:21:24 21.1 25 21.5
003A76EB 2019-02-16 03:51:54 21.1 25 21.5
003A76EB 2019-02-16 03:22:23 21.1 25 21.4
003A76EB 2019-02-16 02:52:53 21.1 25 21.5
003A76EB 2019-02-16 02:23:23 21.1 25 21.5
003A76EB 2019-02-16 01:53:53 21.1 25 21.5
003A76EB 2019-02-16 01:24:23 21.1 25 21.5
003A76EB 2019-02-16 00:54:52 21.2 25 21.5
003A76EB 2019-02-16 00:25:23 21.2 25 21.4
003A76EB 2019-02-15 23:55:54 21.2 25 21.4
003A76EB 2019-02-15 23:26:25 21.3 25 21.5
003A76EB 2019-02-15 22:56:56 21.3 25 21.5
003A76EB 2019-02-15 22:27:25 21.4 25 21.5
003A76EB 2019-02-15 21:57:57 21.4 25 21.5
003A76EB 2019-02-15 21:28:26 21.4 25 21.5
003A76EB 2019-02-15 20:58:56 21.5 25 21.5
003A76EB 2019-02-15 20:29:26 21.6 25 21.7
003A76EB 2019-02-15 19:59:55 21.7 25 21.6
003A76EB 2019-02-15 19:30:25 21.9 24 21.5
003A76EB 2019-02-15 19:00:55 22.3 24 21.4
003A76EB 2019-02-15 18:30:45 21.8 25 21.4
003A76EB 2019-02-15 18:01:16 21.8 25 21.4
003A76EB 2019-02-15 17:31:47 21.8 24 21.3
003A76EB 2019-02-15 17:02:17 21.8 24 21.3
003A76EB 2019-02-15 16:32:48 21.8 24 21.2
003A76EB 2019-02-15 16:03:18 21.8 24 21.2
003A76EB 2019-02-15 15:33:47 21.8 24 21.3
003A76EB 2019-02-15 15:04:17 21.8 23 21.3
003A76EB 2019-02-15 14:34:47 21.8 23 22.2
003A76EB 2019-02-15 14:05:17 21.8 23 22.3
003A76EB 2019-02-15 13:35:48 21.8 23 22.3
003A76EB 2019-02-15 13:06:19 21.7 24 22.3
003A76EB 2019-02-15 12:36:50 21.7 24 22.3
003A76EB 2019-02-15 12:07:22 21.7 24 22.5
003A76EB 2019-02-15 11:37:53 21.6 24 22.4
003A76EB 2019-02-15 11:08:25 21.6 24 22.4
003A76EB 2019-02-15 10:38:55 21.6 24 22.4
003A76EB 2019-02-15 10:09:26 21.5 24 22.4
003A76EB 2019-02-15 09:39:58 21.5 24 22.5
003A76EB 2019-02-15 09:10:29 21.4 25 22.5
003A76EB 2019-02-15 08:41:02 21.3 25 22.5
003A76EB 2019-02-15 08:11:33 21.3 25 22.4
003A76EB 2019-02-15 07:42:07 21.3 25 22.5
003A76EB 2019-02-15 07:12:40 21.3 25 22.4
003A76EB 2019-02-15 06:43:11 21.3 25 22.4
003A76EB 2019-02-15 06:13:44 21.3 25 22.4
003A76EB 2019-02-15 05:44:16 21.3 25 22.4
003A76EB 2019-02-15 05:14:48 21.3 25 22.5
003A76EB 2019-02-15 04:45:18 21.3 25 22.5
003A76EB 2019-02-15 04:15:50 21.3 25 22.4
003A76EB 2019-02-15 03:46:22 21.3 26 22.3
003A76EB 2019-02-15 03:16:53 21.3 26 22.2
003A76EB 2019-02-15 02:47:24 21.3 26 22.1
003A76EB 2019-02-15 02:17:55 21.3 26 20.9
003A76EB 2019-02-15 01:48:27 21.3 26 20.7
003A76EB 2019-02-15 01:18:59 21.3 26 20.7
003A76EB 2019-02-15 00:49:32 21.3 25 20.5
003A76EB 2019-02-15 00:20:05 21.4 25 20.4
003A76EB 2019-02-14 23:50:37 21.4 25 20.1
003A76EB 2019-02-14 23:21:09 21.4 25 19.9
003A76EB 2019-02-14 22:51:42 21.4 25 19.7
003A76EB 2019-02-14 22:22:15 21.4 25 19.5
003A76EB 2019-02-14 21:52:48 21.4 25 19.2
003A76EB 2019-02-14 21:23:20 21.5 25 19
003A76EB 2019-02-14 20:53:53 21.6 24 19.1
003A76EB 2019-02-14 20:24:25 21.7 24 19.1
003A76EB 2019-02-14 19:54:56 21.8 24 18.8
003A76EB 2019-02-14 19:25:28 21.9 24 18.8
003A76EB 2019-02-14 18:56:00 22.1 24 18.8
003A76EB 2019-02-14 18:26:30 22.5 23 18.6
003A76EB 2019-02-14 17:56:20 21.9 24 18.5
003A76EB 2019-02-14 17:26:51 21.9 24 20.2
003A76EB 2019-02-14 16:57:22 22 24 20
003A76EB 2019-02-14 16:27:53 22 24 20.1
003A76EB 2019-02-14 15:58:24 21.9 24 20.1
003A76EB 2019-02-14 15:28:55 21.9 23 20.3
003A76EB 2019-02-14 14:59:25 21.8 24 21.6
003A76EB 2019-02-14 14:29:56 21.7 24 21.7
003A76EB 2019-02-14 14:00:27 21.6 23 21.8
003A76EB 2019-02-14 13:30:57 21.6 23 21.8
003A76EB 2019-02-14 13:01:27 21.6 24 21.7
003A76EB 2019-02-14 12:31:58 21.4 23 21.8
003A76EB 2019-02-14 12:02:29 21.4 23 21.9
003A76EB 2019-02-14 11:33:03 21.4 24 22
003A76EB 2019-02-14 11:03:32 21.4 24 22.1
003A76EB 2019-02-14 10:34:04 21.1 24 22.1
003A76EB 2019-02-14 10:04:34 21 24 22.2
003A76EB 2019-02-14 09:35:05 21 24 22.2
003A76EB 2019-02-14 09:05:36 20.9 24 22.3
003A76EB 2019-02-14 08:36:07 20.8 24 22.2
003A76EB 2019-02-14 08:06:38 20.8 24 22.1
003A76EB 2019-02-14 07:37:10 20.9 25 22.1
003A76EB 2019-02-14 07:07:42 20.9 25 22.1
003A76EB 2019-02-14 06:38:14 20.9 25 22
003A76EB 2019-02-14 06:08:45 20.9 25 22
003A76EB 2019-02-14 05:39:17 20.9 25 21.9
003A76EB 2019-02-14 05:09:49 20.9 25 20.8
003A76EB 2019-02-14 04:40:19 20.9 25 20.8
003A76EB 2019-02-14 04:10:50 20.9 25 20.8
003A76EB 2019-02-14 03:41:22 20.9 25 20.8
003A76EB 2019-02-14 03:11:53 20.9 25 20.8
003A76EB 2019-02-14 02:42:24 20.9 25 19.1
003A76EB 2019-02-14 02:12:56 20.9 25 20.6
003A76EB 2019-02-14 01:43:28 20.9 25 20.6
003A76EB 2019-02-14 01:13:59 20.9 25 20.6
003A76EB 2019-02-14 00:44:30 21 25 20.7
003A76EB 2019-02-14 00:15:01 20.9 25 20.7
003A76EB 2019-02-13 23:45:31 21 25 20.7
003A76EB 2019-02-13 23:16:01 21 25 20.5
003A76EB 2019-02-13 22:46:33 21 24 20.4
003A76EB 2019-02-13 22:17:04 21.1 25 20.4
003A76EB 2019-02-13 21:47:37 21.1 25 20.3
003A76EB 2019-02-13 21:18:09 21.1 25 20.3
003A76EB 2019-02-13 20:48:43 21.2 25 20.3
003A76EB 2019-02-13 20:19:12 21.3 25 20.2
003A76EB 2019-02-13 19:49:48 21.3 25 20.3
003A76EB 2019-02-13 19:20:15 21.4 25 20.3
003A76EB 2019-02-13 18:50:48 21.4 25 20.3
003A76EB 2019-02-13 18:21:20 21.6 26 20.4
003A76EB 2019-02-13 17:51:54 21.5 26 20.5
003A76EB 2019-02-13 17:21:42 21.5 26 20.4
003A76EB 2019-02-13 16:52:14 21.4 26 20.4
003A76EB 2019-02-13 16:22:44 21.4 25 20.4
003A76EB 2019-02-13 15:53:16 21.3 25 20.3
003A76EB 2019-02-13 15:23:48 21.2 25 20.3
003A76EB 2019-02-13 14:54:19 21.2 25 20.3
003A76EB 2019-02-13 14:24:50 21.2 24 20.4
003A76EB 2019-02-13 13:55:21 21.2 24 18.7
003A76EB 2019-02-13 13:25:52 21.2 24 18.7
003A76EB 2019-02-13 12:56:23 21.2 24 18.5
003A76EB 2019-02-13 12:26:55 21.2 24 18.4
003A76EB 2019-02-13 11:57:28 21.1 24 18.4
003A76EB 2019-02-13 11:28:00 21.1 24 18.4
003A76EB 2019-02-13 10:58:33 21 24 18.6
003A76EB 2019-02-13 10:29:06 21 23 18.6
003A76EB 2019-02-13 09:59:38 20.9 23 18.8
003A76EB 2019-02-13 09:30:12 20.9 22 18.6
003A76EB 2019-02-13 09:00:45 20.9 21 18.8
003A76EB 2019-02-13 08:31:16 20.8 21 18.8
003A76EB 2019-02-13 08:01:51 20.8 20 18.8
003A76EB 2019-02-13 07:32:21 20.8 19 18.6
003A76EB 2019-02-13 07:02:52 20.8 19 18.7
003A76EB 2019-02-13 06:33:24 20.8 19 18.6
003A76EB 2019-02-13 06:03:56 20.9 19 20.3
003A76EB 2019-02-13 05:34:28 20.9 19 20.4
003A76EB 2019-02-13 05:05:01 20.9 19 20.4
003A76EB 2019-02-13 04:35:33 20.9 19 20.3
003A76EB 2019-02-13 04:06:07 20.9 19 20.2
003A76EB 2019-02-13 03:36:36 20.9 19 20.4
003A76EB 2019-02-13 03:07:08 20.9 19 20.4
003A76EB 2019-02-13 02:37:40 20.9 19 20.3
003A76EB 2019-02-13 02:08:11 20.9 19 20.2
003A76EB 2019-02-13 01:38:41 20.9 19 20.1
003A76EB 2019-02-13 01:09:13 20.9 19 20.2
003A76EB 2019-02-13 00:39:44 20.9 19 20.2
003A76EB 2019-02-13 00:10:15 21 20 20.1
003A76EB 2019-02-12 23:40:46 21 19 20
003A76EB 2019-02-12 23:11:18 21 19 19.9
003A76EB 2019-02-12 22:41:50 21.1 19 19.8
003A76EB 2019-02-12 22:12:21 21.1 19 19.8
003A76EB 2019-02-12 21:42:52 21.2 20 19.7
003A76EB 2019-02-12 21:13:22 21.3 21 19.9
003A76EB 2019-02-12 20:43:53 21.3 21 19.8
003A76EB 2019-02-12 20:14:23 21.5 21 19.7
003A76EB 2019-02-12 19:44:53 21.5 20 19.9
003A76EB 2019-02-12 19:15:24 21.5 20 20
003A76EB 2019-02-12 18:45:55 21.6 20 20.1
003A76EB 2019-02-12 18:16:25 21.6 19 20
003A76EB 2019-02-12 17:46:57 21.6 19 17.9
003A76EB 2019-02-12 17:17:27 21.7 19 17.8
003A76EB 2019-02-12 16:47:16 21.8 19 18.1
003A76EB 2019-02-12 16:17:46 21.9 19 18.3
003A76EB 2019-02-12 15:48:14 21.9 19 18.5
003A76EB 2019-02-12 15:18:45 21.8 19 18.4
003A76EB 2019-02-12 14:49:17 21.7 19 18.3
003A76EB 2019-02-12 14:19:49 21.5 19 18.4
003A76EB 2019-02-12 13:50:22 21.3 20 18.3
003A76EB 2019-02-12 13:20:55 21.4 20 18.5
003A76EB 2019-02-12 12:51:28 21.4 20 18.7
003A76EB 2019-02-12 12:21:59 21.3 20 18.8
003A76EB 2019-02-12 11:52:32 21.3 21 19.1
003A76EB 2019-02-12 11:23:05 21.3 21 19.2
003A76EB 2019-02-12 10:53:37 21.3 22 19.2
003A76EB 2019-02-12 10:24:09 21.2 22 19.5
003A76EB 2019-02-12 09:54:39 21.1 22 19.5
003A76EB 2019-02-12 09:25:11 21.1 23 19.6
003A76EB 2019-02-12 08:55:43 21 23 19.5
003A76EB 2019-02-12 08:26:13 20.9 24 19.6
003A76EB 2019-02-12 07:56:48 20.9 24 19.6
003A76EB 2019-02-12 07:27:17 20.9 25 19.5
003A76EB 2019-02-12 06:57:50 20.9 26 19.6
003A76EB 2019-02-12 06:28:20 20.9 26 19.5
003A76EB 2019-02-12 05:58:51 20.9 26 19.7
003A76EB 2019-02-12 05:29:22 20.9 26 19.7
003A76EB 2019-02-12 04:59:54 20.9 26 19.6
003A76EB 2019-02-12 04:30:28 20.9 26 19.5
003A76EB 2019-02-12 04:00:57 20.9 26 19.4
003A76EB 2019-02-12 03:31:27 20.9 27 19.3
003A76EB 2019-02-12 03:01:58 20.9 27 19.3
003A76EB 2019-02-12 02:32:28 20.9 27 19.4
003A76EB 2019-02-12 02:02:59 21 27 19.5
003A76EB 2019-02-12 01:33:29 21 27 19.6
003A76EB 2019-02-12 01:04:00 21 27 19.6
003A76EB 2019-02-12 00:34:30 21 27 19.4
003A76EB 2019-02-12 00:05:01 21 27 19.4
003A76EB 2019-02-11 23:35:33 21.1 27 19.2
003A76EB 2019-02-11 23:06:05 21.1 27 19.2
003A76EB 2019-02-11 22:36:34 21.1 27 19.4
003A76EB 2019-02-11 22:07:07 21.2 27 19.1
003A76EB 2019-02-11 21:37:36 21.3 27 18.9
003A76EB 2019-02-11 21:08:07 21.3 27 19
003A76EB 2019-02-11 20:38:39 21.4 27 18.6
003A76EB 2019-02-11 20:09:10 21.5 27 18.8
003A76EB 2019-02-11 19:39:40 21.6 27 19.5
003A76EB 2019-02-11 19:10:10 21.6 27 18.8
003A76EB 2019-02-11 18:40:40 21.8 27 17.6
003A76EB 2019-02-11 18:11:10 21.9 27 18.3
003A76EB 2019-02-11 17:41:39 22.1 28 17.3
003A76EB 2019-02-11 17:12:07 22.2 27 14.3
003A76EB 2019-02-11 16:42:35 22.1 34 0